Date String (YYYY-MM-DD hh:mm:ss) UTC,Instrument flags,Ambient pressure (hPa),Sample flow (lpm),Bypass flow (lpm),Sample temperature (°C),Ambient temperature (°C),ASC tube jacket temperature (°C),LED temperature (°C),Box temperature (°C),Sample RH (%),Span deviation,Mass concentration (μg/m³),Mass concentration (μg/m³),Mass concentration (μg/m³)
DateTimeUTC,F1_M11,P_M11,Q1_M11,Q2_M11,T1_M11,T2_M11,T3_M11,T4_M11,T5_M11,U1_M11,ZSPAN_M11,X2_M11,X0_M11,X1_M11
2022-07-16 23:00:00,,0829.6,5.00,0.00,29.4,27.9,00.0,38.1,31.3,26.1,0000.0,0005.36,0009.18,0004.67
2022-07-16 23:01:00,,0829.6,5.01,0.00,29.5,28.1,00.0,38.1,31.4,26.4,0000.0,0005.35,0009.18,0004.66
2022-07-16 23:02:00,,0829.5,4.99,0.00,29.5,28.3,00.0,38.2,31.4,26.6,0000.0,0005.34,0009.28,0004.66
2022-07-16 23:03:00,,0829.5,5.00,0.00,29.5,28.4,00.0,38.2,31.5,26.6,0000.0,0005.35,0009.30,0004.66
2022-07-16 23:04:00,,0829.5,4.99,0.00,29.6,28.2,00.0,38.2,31.6,26.8,0000.0,0005.41,0009.43,0004.67
2022-07-16 23:05:00,,0829.6,5.00,0.00,29.6,27.6,00.0,38.1,31.5,26.8,0000.0,0005.35,0009.64,0004.65
2022-07-16 23:06:00,,0829.6,5.01,0.00,29.5,27.3,00.0,38.1,31.4,27.0,0000.0,0005.30,0009.52,0004.65
2022-07-16 23:07:00,,0829.6,5.01,0.00,29.5,27.3,00.0,38.1,31.3,27.2,0000.0,0005.32,0009.56,0004.66
2022-07-16 23:08:00,,0829.5,5.00,0.00,29.4,27.4,00.0,38.1,31.2,27.4,0000.0,0005.34,0009.65,0004.67
2022-07-16 23:09:00,,0829.6,5.00,0.00,29.4,27.6,00.0,38.1,31.2,28.1,0000.0,0005.36,0009.73,0004.68
2022-07-16 23:10:00,,0829.6,4.99,0.00,29.4,27.8,00.0,38.1,31.3,27.9,0000.0,0005.36,0009.76,0004.70
2022-07-16 23:11:00,,0829.5,5.00,0.00,29.5,28.0,00.0,38.1,31.3,28.5,0000.0,0005.42,0009.89,0004.71
2022-07-16 23:12:00,,0829.6,5.00,0.00,29.5,28.2,00.0,38.2,31.4,27.9,0000.0,0005.42,0009.92,0004.72
2022-07-16 23:13:00,,0829.6,5.00,0.00,29.5,28.3,00.0,38.2,31.5,28.2,0000.0,0005.42,0009.81,0004.73
2022-07-16 23:14:00,,0829.6,4.99,0.00,29.6,28.3,00.0,38.2,31.5,28.7,0000.0,0005.40,0009.78,0004.72
2022-07-16 23:15:00,,0829.5,5.00,0.00,29.6,27.6,00.0,38.1,31.5,29.6,0000.0,0005.41,0009.86,0004.72
2022-07-16 23:16:00,,0829.5,5.01,0.00,29.5,27.2,00.0,38.1,31.4,30.1,0000.0,0005.42,0009.82,0004.71
2022-07-16 23:17:00,,0829.5,5.00,0.00,29.5,27.2,00.0,38.1,31.3,29.0,0000.0,0005.43,0009.72,0004.70
2022-07-16 23:18:00,,0829.5,5.00,0.00,29.4,27.3,00.0,38.1,31.2,28.3,0000.0,0005.36,0009.86,0004.67
2022-07-16 23:19:00,,0829.5,5.00,0.00,29.4,27.5,00.0,38.1,31.2,28.4,0000.0,0005.34,0010.18,0004.65
2022-07-16 23:20:00,,0829.4,4.99,0.00,29.4,27.7,00.0,38.1,31.3,28.5,0000.0,0005.35,0010.16,0004.64
2022-07-16 23:21:00,,0829.5,5.00,0.00,29.4,27.9,00.0,38.1,31.3,28.3,0000.0,0005.34,0010.10,0004.61
2022-07-16 23:22:00,,0829.5,4.99,0.00,29.5,28.1,00.0,38.2,31.4,28.2,0000.0,0005.25,0009.86,0004.55
2022-07-16 23:23:00,,0829.5,5.01,0.00,29.5,28.3,00.0,38.2,31.4,28.3,0000.0,0005.17,0009.70,0004.51
2022-07-16 23:24:00,,0829.5,4.99,0.00,29.5,28.3,00.0,38.2,31.5,27.9,0000.0,0005.13,0009.66,0004.47
2022-07-16 23:25:00,,0829.5,5.00,0.00,29.5,27.6,00.0,38.1,31.4,26.4,0000.0,0005.11,0009.59,0004.45
2022-07-16 23:26:00,,0829.5,5.00,0.00,29.5,27.2,00.0,38.1,31.4,27.2,0000.0,0005.06,0009.47,0004.43
2022-07-16 23:27:00,,0829.5,5.00,0.00,29.5,27.2,00.0,38.1,31.2,26.7,0000.0,0005.00,0009.34,0004.41
2022-07-16 23:28:00,,0829.5,5.00,0.00,29.4,27.3,00.0,38.1,31.1,26.3,0000.0,0004.97,0008.79,0004.40
2022-07-16 23:29:00,,0829.5,5.00,0.00,29.4,27.5,00.0,38.1,31.2,26.6,0000.0,0004.95,0008.81,0004.39
2022-07-16 23:30:00,,0829.5,5.00,0.00,29.4,27.7,00.0,38.1,31.2,26.7,0000.0,0004.93,0008.11,0004.38
2022-07-16 23:31:00,,0829.5,4.99,0.00,29.4,27.9,00.0,38.1,31.3,27.0,0000.0,0004.89,0008.02,0004.36
2022-07-16 23:32:00,,0829.5,4.99,0.00,29.4,28.1,00.0,38.1,31.3,27.3,0000.0,0004.83,0007.91,0004.35
2022-07-16 23:33:00,,0829.4,5.01,0.00,29.5,28.3,00.0,38.2,31.4,27.5,0000.0,0004.86,0007.96,0004.37
2022-07-16 23:34:00,,0829.5,5.00,0.00,29.5,28.3,00.0,38.1,31.5,28.1,0000.0,0004.87,0007.98,0004.38
2022-07-16 23:35:00,,0829.4,5.01,0.00,29.5,27.7,00.0,38.1,31.4,28.9,0000.0,0004.86,0007.93,0004.39
2022-07-16 23:36:00,,0829.5,4.99,0.00,29.5,27.2,00.0,38.1,31.3,28.7,0000.0,0004.87,0007.95,0004.40
2022-07-16 23:37:00,,0829.5,5.00,0.00,29.5,27.1,00.0,38.1,31.2,28.2,0000.0,0004.91,0007.94,0004.42
2022-07-16 23:38:00,,0829.5,5.01,0.00,29.4,27.2,00.0,38.1,31.1,29.0,0000.0,0004.95,0007.98,0004.43
2022-07-16 23:39:00,,0829.5,4.99,0.00,29.4,27.4,00.0,38.1,31.1,29.1,0000.0,0005.01,0008.09,0004.44
2022-07-16 23:40:00,,0829.5,5.00,0.00,29.4,27.6,00.0,38.1,31.2,30.1,0000.0,0005.03,0008.08,0004.46
2022-07-16 23:41:00,,0829.5,4.99,0.00,29.4,27.8,00.0,38.1,31.3,30.2,0000.0,0005.06,0008.05,0004.48
2022-07-16 23:42:00,,0829.4,5.00,0.00,29.4,28.0,00.0,38.1,31.3,30.0,0000.0,0005.08,0008.08,0004.49
2022-07-16 23:43:00,,0829.5,4.99,0.00,29.4,28.2,00.0,38.1,31.4,29.8,0000.0,0005.12,0008.16,0004.52
2022-07-16 23:44:00,,0829.4,5.01,0.00,29.5,28.4,00.0,38.1,31.4,30.4,0000.0,0005.09,0008.10,0004.54
2022-07-16 23:45:00,,0829.4,5.00,0.00,29.5,28.2,00.0,38.1,31.5,30.0,0000.0,0005.08,0008.11,0004.55
2022-07-16 23:46:00,,0829.5,4.98,0.00,29.5,27.5,00.0,38.1,31.4,30.0,0000.0,0005.11,0008.13,0004.58
2022-07-16 23:47:00,,0829.5,4.99,0.00,29.5,27.1,00.0,38.1,31.3,30.2,0000.0,0005.15,0008.50,0004.59
2022-07-16 23:48:00,,0829.5,5.01,0.00,29.4,27.1,00.0,38.1,31.2,31.3,0000.0,0005.16,0008.63,0004.60
2022-07-16 23:49:00,,0829.5,5.01,0.00,29.4,27.2,00.0,38.1,31.1,31.7,0000.0,0005.13,0008.53,0004.61
2022-07-16 23:50:00,,0829.5,4.99,0.00,29.4,27.4,00.0,38.1,31.2,31.5,0000.0,0005.08,0008.40,0004.61
2022-07-16 23:51:00,,0829.4,5.00,0.00,29.4,27.7,00.0,38.1,31.2,31.3,0000.0,0005.10,0008.44,0004.62
2022-07-16 23:52:00,,0829.3,5.00,0.00,29.4,27.9,00.0,38.1,31.3,30.7,0000.0,0005.13,0008.55,0004.64
2022-07-16 23:53:00,,0829.3,5.00,0.00,29.4,28.1,00.0,38.1,31.4,30.1,0000.0,0005.14,0008.53,0004.65
2022-07-16 23:54:00,,0829.3,5.00,0.00,29.5,28.2,00.0,38.1,31.4,29.0,0000.0,0005.14,0008.52,0004.65
2022-07-16 23:55:00,,0829.4,4.99,0.00,29.5,28.4,00.0,38.1,31.5,29.4,0000.0,0005.19,0008.58,0004.67
2022-07-16 23:56:00,,0829.5,5.00,0.00,29.5,28.0,00.0,38.1,31.5,29.9,0000.0,0005.24,0008.75,0004.69
2022-07-16 23:57:00,,0829.5,4.99,0.00,29.5,27.3,00.0,38.1,31.4,30.7,0000.0,0005.29,0008.90,0004.71
2022-07-16 23:58:00,,0829.5,5.00,0.00,29.5,27.0,00.0,38.0,31.3,31.5,0000.0,0005.31,0008.76,0004.73
2022-07-16 23:59:00,,0829.5,5.01,0.00,29.4,27.1,00.0,38.1,31.2,32.0,0000.0,0005.31,0008.57,0004.74
